Location: *
(49.6619°S, 177.4603°W)
Time: 05:48:27
(UTC+00:00)

Cosmos 1833 Rocket - Pass Details

Date: 31 January 2023
Orbit: 831 x 841 km, 71.0° (Epoch: 01 April)

Event Time Altitude Azimuth Distance (km) Brightness Sun altitude
Rises 11:05:14 0° 210° (SSW) 3,432 7.2 -21.7°
Reaches altitude 10° 11:07:42 10° 210° (SSW) 2,490 6.2 -21.8°
Maximum altitude 11:13:27 84° 297° (WNW) 859 2.6 -22.1°
Enters shadow 11:15:04 49° 19° (NNE) 1,086 2.8 -22.1°
